C/2018 A3 ( ATLAS )

Japanese version
Home page
Updated on June 25, 2018

---------------------------------------------------------------------

* Profile

Discovery Date January 10, 2018
Magnitude 18.7 mag
Discoverer Asteroid Terrestrial-impact Last Alert System (ATLAS) search program

* Pictures

* Orbital Elements

Epoch 2018 Dec. 28.0 TT = JDT 2458480.5
T 2019 Jan. 12.85613 TT                                 MPCW
q   3.2767761            (2000.0)            P               Q
z  +0.0019990      Peri.   86.42463     -0.24780011     +0.95551011
 +/-0.0000057      Node   194.27963     +0.40379306     +0.25197255
e   0.9934496      Incl.  139.56204     +0.88065105     +0.15333059
From 553 observations 2018 Jan. 10-May 25, mean residual 0".4.

* Finding Charts

* Magnitudes Graph

        m1 = 8.0 + 5 log d + 10.0 log r

---------------------------------------------------------------------

The orbital elements are published on M.P.E.C. 2018-K95.
The charts are made with StellaNavigator Ver.10 (AstroArts).
The magnitudes graphs are made with Comet for Windows.

---------------------------------------------------------------------

Copyright(C) Seiichi Yoshida (comet@aerith.net). All rights reserved.